Location: Fort Worth, Tx
(32.7431°N, 97.3695°W)
Time: 13:26:19
(UTC-04:00)

Transit 2A - Pass Details

Date: 26 February 2024
Orbit: 596 x 956 km, 66.7° (Epoch: 20 April)

Event Time Altitude Azimuth Distance (km) Brightness Sun altitude
Rises 20:48:53 0° 224° (SW) 2,902 9.6 -18.6°
Reaches altitude 10° 20:51:20 10° 234° (SW) 1,966 8.9 -19.1°
Maximum altitude 20:55:20 35° 300° (WNW) 977 7.1 -19.9°
Drops below altitude 10° 20:59:18 10° 7° (N) 1,934 8.1 -20.8°
Enters shadow 21:01:06 - 15° (NNE) 2,613 8.7 -21.2°
